Retour au catalogue

GSAT 31

ActifCommunicationsGEO
NORAD 44035·PAYLOAD·🇮🇳 India

Lancé Feb 5, 2019 depuis Guiana Space Centre

Loading…

TLE

FraisSource: Space-Track

Époque: Sep 14, 2026, 14:01 UTC

1 44035U 19007B   26257.58463439  .00000000  00000-0  00000-0 0  9997
2 44035   0.0193 169.1373 0003702  54.5937  28.1629  1.00270056 27868

Suivez GSAT 31 en temps réel avec AllMySat

Download on the App Store